KI7JYE Weather Reports


time (UTC)temp
F
wind
direction
speed
knots
gust
knots
rain 1hr
in
rain 24hr
in
rain mn
in
humidity
%
barometer
mb
20260507065200 55 299 2.6 4.3 0.00 0.00 0.00 78 1019.9
20260507064658 55 281 3.5 5.2 0.00 0.00 0.00 78 1020.2
20260507064156 55 232 0.0 0.9 0.00 0.00 0.00 78 1019.9
20260507063654 55 237 3.5 5.2 0.00 0.00 0.00 78 1020.2
20260507063150 55 299 4.3 6.1 0.00 0.00 0.00 78 1020.1
20260507062647 55 231 1.7 2.6 0.00 0.00 0.00 78 1020.4
20260507062145 55 287 2.6 2.6 0.00 0.00 0.00 78 1020.1
20260507061643 55 228 0.9 0.9 0.00 0.00 0.00 78 1020.2
20260507061140 55 314 3.5 5.2 0.00 0.00 0.00 78 1020.4
20260507060638 56 312 1.7 2.6 0.00 0.00 0.00 79 1020.2
20260507060134 56 218 0.0 0.0 0.00 0.00 0.00 78 1020.0
20260507055630 56 248 1.7 4.3 0.00 0.00 0.00 79 1020.0
20260507055126 57 295 2.6 2.6 0.00 0.00 0.00 78 1019.9
20260507054622 57 267 0.9 1.7 0.00 0.00 0.00 78 1019.9
20260507054119 57 203 0.9 0.9 0.00 0.00 0.00 78 1019.8
20260507053617 57 197 0.0 0.9 0.00 0.00 0.00 77 1020.0
20260507053115 57 218 0.9 0.9 0.00 0.00 0.00 77 1020.0
20260507052613 58 215 0.0 0.0 0.00 0.00 0.00 77 1020.0
20260507052109 58 232 0.0 0.0 0.00 0.00 0.00 77 1020.0
20260507051607 58 240 0.9 0.9 0.00 0.00 0.00 77 1020.0
20260507051104 58 188 1.7 1.7 0.00 0.00 0.00 76 1019.9
20260507050600 58 221 1.7 1.7 0.00 0.00 0.00 76 1019.9
20260507050057 58 191 2.6 2.6 0.00 0.00 0.00 76 1019.9
20260507045554 58 214 0.9 0.9 0.00 0.00 0.00 76 1020.1
20260507045051 59 135 4.3 5.2 0.00 0.00 0.00 76 1020.0
20260507044547 59 209 0.0 0.0 0.00 0.00 0.00 76 1020.0
20260507044045 59 213 1.7 2.6 0.00 0.00 0.00 77 1019.9
20260507043540 59 242 1.7 1.7 0.00 0.00 0.00 76 1020.1
20260507043038 60 290 2.6 4.3 0.00 0.00 0.00 77 1019.9
20260507042533 60 237 0.0 0.0 0.00 0.00 0.00 78 1019.6
20260507042029 60 236 0.9 0.9 0.00 0.00 0.00 78 1019.7
20260507041526 60 246 0.0 0.9 0.00 0.00 0.00 78 1019.6
20260507041023 60 161 1.7 2.6 0.00 0.00 0.00 78 1019.6
20260507040519 60 192 2.6 2.6 0.00 0.00 0.00 77 1019.5
20260507040015 59 186 1.7 1.7 0.00 0.00 0.00 77 1019.5
20260507035512 59 192 1.7 1.7 0.00 0.00 0.00 76 1019.6
20260507035008 59 170 3.5 4.3 0.00 0.00 0.00 76 1019.5
20260507034505 59 214 0.9 0.9 0.00 0.00 0.00 76 1019.4
20260507034003 60 197 0.9 1.7 0.00 0.00 0.00 76 1019.2
20260507033501 60 207 0.9 0.9 0.00 0.00 0.00 75 1019.2
20260507032958 60 191 1.7 1.7 0.00 0.00 0.00 74 1019.0
20260507032455 60 219 0.0 0.0 0.00 0.00 0.00 74 1019.1
20260507031951 61 206 0.9 1.7 0.00 0.00 0.00 73 1019.2
20260507031448 61 209 0.0 0.0 0.00 0.00 0.00 73 1019.0
20260507030944 61 212 0.9 0.9 0.00 0.00 0.00 73 1018.7
20260507030441 61 215 0.0 0.0 0.00 0.00 0.00 72 1018.9
20260507025938 62 218 0.0 0.9 0.00 0.00 0.00 72 1018.8
20260507025436 62 202 1.7 1.7 0.00 0.00 0.00 71 1019.0
20260507024933 62 231 0.9 0.9 0.00 0.00 0.00 71 1018.7
20260507024431 62 202 0.9 0.9 0.00 0.00 0.00 71 1018.7
20260507023926 63 201 0.0 0.9 0.00 0.00 0.00 70 1018.5
20260507023423 63 209 1.7 1.7 0.00 0.00 0.00 70 1018.5
20260507022920 63 220 0.9 0.9 0.00 0.00 0.00 69 1018.7
20260507022418 63 155 1.7 2.6 0.00 0.00 0.00 69 1018.6
20260507021913 64 177 1.7 2.6 0.00 0.00 0.00 68 1018.6
20260507021408 64 200 0.9 1.7 0.00 0.00 0.00 68 1018.7
20260507020906 65 209 0.9 0.9 0.00 0.00 0.00 67 1018.5
20260507020403 65 197 1.7 1.7 0.00 0.00 0.00 66 1018.5
20260507015900 66 107 2.6 4.3 0.00 0.00 0.00 65 1018.6
20260507015358 66 183 0.9 1.7 0.00 0.00 0.00 65 1018.6
20260507014854 67 229 1.7 1.7 0.00 0.00 0.00 63 1018.8
20260507014351 68 231 0.0 0.0 0.00 0.00 0.00 63 1018.7
20260507013847 68 239 0.9 1.7 0.00 0.00 0.00 63 1018.6
20260507013344 68 222 0.9 0.9 0.00 0.00 0.00 63 1018.5
20260507012842 68 229 0.0 0.9 0.00 0.00 0.00 62 1018.8
20260507012337 68 228 0.9 0.9 0.00 0.00 0.00 62 1018.5
20260507011835 68 225 0.9 0.9 0.00 0.00 0.00 62 1018.4
20260507011332 68 223 0.9 1.7 0.00 0.00 0.00 62 1018.5
20260507010826 69 229 0.9 0.9 0.00 0.00 0.00 62 1018.7
20260507010322 69 230 0.0 0.9 0.00 0.00 0.00 61 1018.7
20260507005819 69 227 0.0 0.9 0.00 0.00 0.00 62 1018.6
20260507005316 70 239 0.9 0.9 0.00 0.00 0.00 60 1018.5
20260507004813 70 252 0.9 1.7 0.00 0.00 0.00 59 1018.5
20260507004310 71 228 2.6 4.3 0.00 0.00 0.00 60 1018.3
20260507003807 71 215 0.0 0.9 0.00 0.00 0.00 60 1018.3
20260507003302 72 246 0.9 0.9 0.00 0.00 0.00 60 1018.2
20260507002758 72 232 0.9 0.9 0.00 0.00 0.00 60 1018.4
20260507002254 72 232 0.9 0.9 0.00 0.00 0.00 59 1018.3
20260507001751 72 226 0.9 0.9 0.00 0.00 0.00 59 1018.5
20260507001249 73 230 0.0 0.9 0.00 0.00 0.00 59 1018.1
20260507000744 72 222 0.9 1.7 0.00 0.00 0.00 60 1018.2
20260507000241 73 226 0.9 0.9 0.00 0.00 0.00 59 1018.4
20260506235738 74 191 0.0 0.9 0.00 0.00 0.00 59 1018.2
20260506235232 74 144 3.5 4.3 0.00 0.00 0.00 58 1018.3
20260506234730 73 228 2.6 2.6 0.00 0.00 0.00 59 1018.2
20260506234227 71 226 0.0 0.9 0.00 0.00 0.00 61 1018.2
20260506233725 71 188 2.6 2.6 0.00 0.00 0.00 62 1018.1
20260506233221 71 144 3.5 5.2 0.00 0.00 0.00 63 1018.4
20260506232718 73 166 4.3 6.1 0.00 0.00 0.00 59 1018.3
20260506232212 71 189 2.6 2.6 0.00 0.00 0.00 61 1018.4
20260506231710 73 254 1.7 1.7 0.00 0.00 0.00 60 1018.3
20260506231209 75 233 0.0 0.0 0.00 0.00 0.00 56 1018.4
20260506230705 76 271 2.6 4.3 0.00 0.00 0.00 55 1018.4
20260506230202 76 261 0.9 1.7 0.00 0.00 0.00 56 1018.5
20260506225658 74 221 1.7 1.7 0.00 0.00 0.00 58 1018.5
20260506225155 73 218 0.0 0.0 0.00 0.00 0.00 60 1018.6
20260506224651 72 207 1.7 1.7 0.00 0.00 0.00 60 1018.6
20260506224148 73 232 0.9 0.9 0.00 0.00 0.00 59 1018.7
20260506223645 71 231 2.6 2.6 0.00 0.00 0.00 62 1018.8
20260506223140 70 234 0.0 0.9 0.00 0.00 0.00 63 1019.0
20260506222638 70 208 1.7 2.6 0.00 0.00 0.00 64 1018.8
20260506222134 70 143 0.0 1.7 0.00 0.00 0.00 65 1018.9
20260506221632 71 220 1.7 2.6 0.00 0.00 0.00 61 1019.0
20260506221130 70 240 0.0 0.9 0.00 0.00 0.00 63 1019.0
20260506220626 70 216 0.0 0.9 0.00 0.00 0.00 63 1018.9
20260506220121 69 224 1.7 1.7 0.00 0.00 0.00 64 1019.0
20260506215618 69 134 0.9 2.6 0.00 0.00 0.00 65 1018.9
20260506215113 70 208 1.7 1.7 0.00 0.00 0.00 64 1018.9
20260506214611 69 229 1.7 4.3 0.00 0.00 0.00 64 1019.0
20260506214108 70 196 1.7 1.7 0.00 0.00 0.00 64 1019.1
20260506213606 69 211 0.9 0.9 0.00 0.00 0.00 65 1018.8
20260506213103 69 77 0.9 0.9 0.00 0.00 0.00 66 1019.2
20260506212600 68 218 2.6 2.6 0.00 0.00 0.00 67 1019.3
20260506212054 69 222 0.0 0.9 0.00 0.00 0.00 64 1019.2
20260506211551 67 221 0.0 0.0 0.00 0.00 0.00 70 1019.4
20260506211048 68 214 2.6 4.3 0.00 0.00 0.00 68 1019.3
20260506210544 68 221 0.9 0.9 0.00 0.00 0.00 67 1019.6
20260506210041 69 199 1.7 1.7 0.00 0.00 0.00 66 1019.6
20260506205538 68 229 0.9 1.7 0.00 0.00 0.00 68 1019.4
20260506205033 66 225 1.7 2.6 0.00 0.00 0.00 72 1019.2
20260506204532 66 193 1.7 1.7 0.00 0.00 0.00 72 1019.3
20260506204028 66 150 4.3 5.2 0.00 0.00 0.00 71 1019.2
20260506203527 65 210 1.7 2.6 0.00 0.00 0.00 74 1019.4
20260506203023 66 129 6.1 8.7 0.00 0.00 0.00 72 1019.4
20260506202520 67 164 2.6 2.6 0.00 0.00 0.00 71 1019.3
20260506202016 68 214 0.9 0.9 0.00 0.00 0.00 67 1019.4
20260506201514 67 231 0.9 1.7 0.00 0.00 0.00 69 1019.3
20260506201010 66 202 1.7 1.7 0.00 0.00 0.00 72 1019.4
20260506200507 66 180 1.7 2.6 0.00 0.00 0.00 72 1019.6
20260506200004 64 211 0.9 0.9 0.00 0.00 0.00 73 1019.7
20260506195501 63 220 0.9 0.9 0.00 0.00 0.00 76 1019.7
20260506194956 63 199 0.9 0.9 0.00 0.00 0.00 76 1019.9
20260506194454 64 253 0.9 1.7 0.00 0.00 0.00 74 1019.8
20260506193950 66 236 0.0 0.0 0.00 0.00 0.00 71 1019.8
20260506193448 66 228 0.9 0.9 0.00 0.00 0.00 71 1020.1
20260506192944 66 233 1.7 1.7 0.00 0.00 0.00 71 1019.9
20260506192442 65 220 1.7 2.6 0.00 0.00 0.00 73 1019.9
20260506191938 65 216 0.0 0.0 0.00 0.00 0.00 73 1020.0
20260506191435 65 210 0.9 0.9 0.00 0.00 0.00 74 1019.9
20260506190931 65 230 0.9 1.7 0.00 0.00 0.00 72 1019.7
20260506190428 65 222 0.9 1.7 0.00 0.00 0.00 73 1019.6
20260506185925 64 234 0.0 0.0 0.00 0.00 0.00 74 1019.8
20260506185422 64 228 1.7 2.6 0.00 0.00 0.00 73 1019.7
20260506184919 66 234 2.6 5.2 0.00 0.00 0.00 69 1019.9
20260506184416 65 215 2.6 4.3 0.00 0.00 0.00 72 1019.7
20260506183914 64 223 2.6 2.6 0.00 0.00 0.00 74 1019.8
20260506183409 65 199 1.7 1.7 0.00 0.00 0.00 72 1019.4
20260506182906 64 221 1.7 1.7 0.00 0.00 0.00 74 1019.6
20260506182403 62 170 3.5 4.3 0.00 0.00 0.00 75 1019.5
20260506181900 64 210 1.7 2.6 0.00 0.00 0.00 72 1019.9
20260506181358 64 217 2.6 2.6 0.00 0.00 0.00 73 1019.9
20260506180855 65 255 2.6 4.3 0.00 0.00 0.00 71 1019.8
20260506180351 63 149 2.6 2.6 0.00 0.00 0.00 75 1019.9
20260506175848 63 231 2.6 2.6 0.00 0.00 0.00 74 1019.9
20260506175345 63 233 1.7 2.6 0.00 0.00 0.00 74 1020.2
20260506174842 62 249 0.9 0.9 0.00 0.00 0.00 76 1019.8
20260506174339 61 228 2.6 2.6 0.00 0.00 0.00 77 1019.7
20260506173837 62 225 0.0 0.0 0.00 0.00 0.00 77 1019.7
20260506173333 61 231 0.0 0.0 0.00 0.00 0.00 78 1019.6
20260506172830 62 233 2.6 2.6 0.00 0.00 0.00 77 1019.5
20260506172327 60 220 0.0 0.9 0.00 0.00 0.00 78 1019.4
20260506171824 59 228 1.7 2.6 0.00 0.00 0.00 81 1019.4
20260506171321 59 226 0.9 0.9 0.00 0.00 0.00 81 1019.7
20260506170819 60 224 0.0 0.0 0.00 0.00 0.00 79 1019.6
20260506170315 60 226 0.0 0.0 0.00 0.00 0.00 79 1019.8
20260506165814 59 236 0.0 0.0 0.00 0.00 0.00 81 1019.8
20260506165311 59 231 0.0 0.9 0.00 0.00 0.00 79 1019.9
20260506164808 59 230 0.0 0.9 0.00 0.00 0.00 81 1019.7
20260506164304 58 238 0.0 0.9 0.00 0.00 0.00 82 1019.8
20260506163801 58 240 0.9 0.9 0.00 0.00 0.00 82 1019.9
20260506163256 58 233 0.0 0.0 0.00 0.00 0.00 82 1019.9
20260506162752 57 255 2.6 2.6 0.00 0.00 0.00 83 1019.7
20260506162250 58 247 0.0 0.0 0.00 0.00 0.00 82 1019.8
20260506161747 57 241 0.9 1.7 0.00 0.00 0.00 83 1019.8
20260506161245 58 227 0.0 0.0 0.00 0.00 0.00 82 1019.6
20260506160742 58 216 0.0 0.9 0.00 0.00 0.00 82 1019.6
20260506160238 57 234 0.0 0.0 0.00 0.00 0.00 83 1019.5
20260506155737 57 222 0.9 0.9 0.00 0.00 0.00 83 1019.4
20260506155233 57 210 0.9 1.7 0.00 0.00 0.00 84 1019.2
20260506153341 57 171 1.7 2.6 0.00 0.00 0.00 86 1019.1
20260506152837 56 205 0.9 0.9 0.00 0.00 0.00 87 1019.2
20260506152335 56 194 0.0 0.0 0.00 0.00 0.00 87 1019.6
20260506151833 55 216 0.0 0.0 0.00 0.00 0.00 88 1019.5
20260506151330 55 226 0.0 0.0 0.00 0.00 0.00 88 1019.7
20260506150827 55 204 0.9 0.9 0.00 0.00 0.00 88 1019.6
20260506150324 55 218 0.9 0.9 0.00 0.00 0.00 88 1019.8
20260506145821 55 228 0.0 0.0 0.00 0.00 0.00 88 1020.0
20260506145317 55 229 0.0 0.0 0.00 0.00 0.00 88 1019.6
20260506144815 55 229 0.0 0.0 0.00 0.00 0.00 89 1019.9
20260506144311 55 237 0.0 0.0 0.00 0.00 0.00 89 1019.7
20260506143809 55 230 0.0 0.0 0.00 0.00 0.00 89 1019.5
20260506143306 55 237 0.9 0.9 0.00 0.00 0.00 89 1019.9
20260506142804 55 248 0.9 0.9 0.00 0.00 0.00 88 1019.1
20260506142305 55 234 0.0 0.0 0.00 0.00 0.00 89 1019.2
20260506141800 55 233 0.0 0.0 0.00 0.00 0.00 89 1018.9
20260506141258 55 237 0.0 0.0 0.00 0.00 0.00 90 1018.7
20260506140755 55 252 0.0 0.0 0.00 0.00 0.00 90 1018.7
20260506140252 55 241 0.0 0.0 0.00 0.00 0.00 90 1018.7
20260506135749 54 221 0.0 0.0 0.00 0.00 0.00 90 1018.7
20260506135245 54 219 0.0 0.0 0.00 0.00 0.00 91 1018.4
20260506134742 54 232 0.0 0.0 0.00 0.00 0.00 91 1018.8
20260506134239 54 231 0.0 0.0 0.00 0.00 0.00 91 1018.5
20260506133736 54 231 0.0 0.0 0.00 0.00 0.00 91 1018.6
20260506133232 54 231 0.0 0.0 0.00 0.00 0.00 91 1018.7
20260506132729 54 229 0.0 0.0 0.00 0.00 0.00 91 1018.3
20260506132226 54 231 0.9 0.9 0.00 0.00 0.00 91 1018.4
20260506131724 54 217 0.0 0.9 0.00 0.00 0.00 91 1018.6
20260506131220 54 229 0.9 0.9 0.00 0.00 0.00 91 1018.5
20260506130717 54 215 0.0 0.9 0.00 0.00 0.00 91 1018.4
20260506130214 54 207 1.7 1.7 0.00 0.00 0.00 91 1018.2
20260506125712 54 196 0.9 1.7 0.00 0.00 0.00 91 1018.3
20260506125210 54 219 0.9 0.9 0.00 0.00 0.00 91 1018.2
20260506124708 54 202 0.0 0.0 0.00 0.00 0.00 91 1018.4
20260506124206 54 225 0.0 0.0 0.00 0.00 0.00 91 1018.3
20260506123702 54 199 1.7 1.7 0.00 0.00 0.00 90 1018.2
20260506123201 54 225 0.0 0.9 0.00 0.00 0.00 90 1018.0
20260506122658 54 175 1.7 1.7 0.00 0.00 0.00 90 1018.0
20260506122155 54 120 0.0 0.9 0.00 0.00 0.00 90 1018.1
20260506121653 54 203 0.9 1.7 0.00 0.00 0.00 90 1018.4
20260506121149 55 206 0.0 0.9 0.00 0.00 0.00 90 1018.3
20260506120647 55 209 0.9 0.9 0.00 0.00 0.00 90 1018.2
20260506120144 55 210 0.9 1.7 0.00 0.00 0.00 90 1018.2
20260506115642 55 196 0.0 0.0 0.00 0.00 0.00 90 1018.2
20260506115140 55 214 0.0 0.0 0.00 0.00 0.00 90 1018.0
20260506114637 55 223 0.0 0.0 0.00 0.00 0.00 90 1017.8
20260506114135 55 210 0.0 0.9 0.00 0.00 0.00 90 1017.9
20260506113634 55 222 0.0 0.0 0.00 0.00 0.00 90 1017.7
20260506113130 55 220 0.0 0.0 0.00 0.00 0.00 90 1017.8
20260506112626 55 223 0.0 0.0 0.00 0.00 0.00 90 1017.7
20260506112124 56 222 0.0 0.0 0.00 0.00 0.00 90 1017.6
20260506111622 56 218 0.0 0.0 0.00 0.00 0.00 90 1017.9
20260506111119 56 206 0.0 0.0 0.00 0.00 0.00 90 1017.7
20260506110616 56 217 0.0 0.0 0.00 0.00 0.00 89 1017.6
20260506110114 56 218 0.0 0.0 0.00 0.00 0.00 89 1017.4
20260506105610 56 220 0.0 0.0 0.00 0.00 0.00 89 1017.4
20260506105107 56 208 0.0 0.0 0.00 0.00 0.00 88 1017.1
20260506104605 56 201 0.0 0.0 0.00 0.00 0.00 88 1017.1
20260506104102 56 200 0.0 0.0 0.00 0.00 0.00 88 1017.2
20260506103600 56 213 0.0 0.0 0.00 0.00 0.00 88 1016.9
20260506103056 56 217 0.0 0.0 0.00 0.00 0.00 88 1017.1
20260506102555 56 215 0.0 0.0 0.00 0.00 0.00 88 1016.9
20260506102052 56 215 0.0 0.0 0.00 0.00 0.00 88 1017.0
20260506101548 56 211 0.0 0.9 0.00 0.00 0.00 88 1016.7
20260506101046 56 207 0.0 0.0 0.00 0.00 0.00 88 1016.8
20260506100544 56 225 0.0 0.0 0.00 0.00 0.00 88 1016.6
20260506100041 56 227 0.0 0.0 0.00 0.00 0.00 88 1016.6
20260506095540 56 227 0.0 0.0 0.00 0.00 0.00 88 1017.0
20260506095036 56 227 0.0 0.0 0.00 0.00 0.00 88 1016.7
20260506094534 56 226 0.0 0.0 0.00 0.00 0.00 88 1016.7
20260506094032 56 227 0.0 0.0 0.00 0.00 0.00 88 1016.6
20260506093530 56 221 0.0 0.0 0.00 0.00 0.00 88 1016.6
20260506093027 56 221 0.0 0.0 0.00 0.00 0.00 88 1016.6
20260506092525 56 221 0.0 0.0 0.00 0.00 0.00 88 1016.5
20260506092021 57 207 0.0 0.0 0.00 0.00 0.00 87 1016.7
20260506091520 57 205 0.0 0.0 0.00 0.00 0.00 87 1016.5
20260506091016 57 208 0.9 0.9 0.00 0.00 0.00 87 1016.5
20260506090514 57 222 0.0 0.0 0.00 0.00 0.00 86 1016.6
20260506090010 57 224 0.0 0.0 0.00 0.00 0.00 87 1016.5
20260506085507 57 224 0.0 0.0 0.00 0.00 0.00 87 1016.4
20260506085004 57 224 0.0 0.0 0.00 0.00 0.00 86 1016.4
20260506084501 57 223 0.0 0.0 0.00 0.00 0.00 86 1016.3
20260506083956 57 222 0.0 0.0 0.00 0.00 0.00 86 1016.3
20260506083454 57 215 0.9 0.9 0.00 0.00 0.00 86 1016.5
20260506082951 57 215 0.9 0.9 0.00 0.00 0.00 86 1016.4
20260506082448 57 204 0.0 0.0 0.00 0.00 0.00 86 1016.4
20260506081944 57 168 2.6 2.6 0.00 0.00 0.00 86 1016.5
20260506081442 57 182 1.7 1.7 0.00 0.00 0.00 86 1016.3
20260506080939 57 222 0.0 0.0 0.00 0.00 0.00 86 1016.1
20260506080436 58 215 0.0 0.0 0.00 0.00 0.00 86 1016.5
20260506073420 59 220 0.0 0.0 0.00 0.00 0.00 85 1016.1
20260506072917 59 215 0.0 0.0 0.00 0.00 0.00 85 1016.2
20260506072414 59 220 0.0 0.0 0.00 0.00 0.00 85 1016.1
20260506071912 59 208 0.0 0.0 0.00 0.00 0.00 86 1016.0
20260506071410 59 219 0.0 0.0 0.00 0.00 0.00 86 1015.8
20260506070907 59 220 0.0 0.0 0.00 0.00 0.00 87 1016.1
20260506070403 59 219 0.0 0.0 0.00 0.00 0.00 87 1015.9